Mount Werner, CO

9:08 PM MST on February 21, 2018 (GMT -0700)
Mount Werner

Weather History for K3MW - January, 2013

Change the Weather History Date:

Thursday, January 10, 2013

  Actual Average (KSBS) Record (KSBS)
Temperature  
Mean Temperature 30 °F -  
Max Temperature 33 °F 28 °F 49 °F (1911)
Min Temperature 26 °F 4 °F -43 °F (1962)
Degree Days  
Heating Degree Days 36    
Moisture  
Dew Point -4 °F    
Average Humidity 28    
Maximum Humidity 69    
Minimum Humidity 9    
Precipitation  
Precipitation 0.00 in - - ()
Sea Level Pressure  
Sea Level Pressure 29.62 in    
Wind  
Wind Speed 20 mph (SSE)    
Max Wind Speed 44 mph    
Max Gust Speed 64 mph    
Visibility 10 miles    
Events      
Averages and records for this station are not official NWS values.
T = Trace of Precipitation, MM = Missing Value Source: NWS Daily Summary

Daily Weather History Graph

Daily Weather History Graph

Search for Another Location

Airport or City:

Trip Planner

Search our weather history database for the weather conditions in past years. The results will help you decide how hot, cold, wet, or windy it might be!

Date:

Astronomy

Jan. 10, 2013 Rise Set
Actual Time 7:29 AM MST 5:00 PM MST
Civil Twilight 6:59 AM MST 5:30 PM MST
Nautical Twilight 6:25 AM MST 6:04 PM MST
Astronomical Twilight 5:52 AM MST 6:36 PM MST
Moon 6:12 AM MST (1/10) 4:11 PM MST (1/10)
Length of Visible Light 10h 30m
Length of Day
9h 30m
Waning Crescent, 2% of the Moon is Illuminated
Jan 10
Waning Crescent
Jan 11
New
Jan 18
First Quarter
Jan 26
Full
Feb 3
Last Quarter

Hourly Weather History & Observations

Time (MST) Temp. Windchill Dew Point Humidity Pressure Visibility Wind Dir Wind Speed Gust Speed Precip Events Conditions
12:15 AM 33.8 °F 23.9 °F -11.2 °F 14% 29.94 in 10.0 mi SE 15.0 mph 28.8 mph N/A   Clear
12:35 AM 32.0 °F 20.8 °F -9.4 °F 17% 29.92 in 10.0 mi SE 17.3 mph - N/A   Clear
12:55 AM 33.8 °F 22.8 °F -13.0 °F 13% 29.91 in 10.0 mi SE 18.4 mph - N/A   Clear
1:15 AM 33.8 °F 22.5 °F -13.0 °F 13% 29.90 in 10.0 mi SE 19.6 mph 28.8 mph N/A   Clear
1:35 AM 32.0 °F 19.5 °F -13.0 °F 14% 29.88 in 10.0 mi SE 21.9 mph 25.3 mph N/A   Clear
1:55 AM 32.0 °F 19.8 °F -9.4 °F 17% 29.87 in 10.0 mi SE 20.7 mph 25.3 mph N/A   Clear
2:15 AM 32.0 °F 20.5 °F -9.4 °F 17% 29.87 in 10.0 mi SE 18.4 mph 24.2 mph N/A   Clear
2:35 AM 32.0 °F 19.8 °F -11.2 °F 15% 29.86 in 10.0 mi SE 20.7 mph - N/A   Clear
2:55 AM 32.0 °F 20.1 °F -11.2 °F 15% 29.86 in 10.0 mi SE 19.6 mph - N/A   Clear
3:15 AM 32.0 °F 20.1 °F -13.0 °F 14% 29.85 in 10.0 mi SE 19.6 mph 26.5 mph N/A   Clear
3:35 AM 32.0 °F 20.1 °F -13.0 °F 14% 29.83 in 10.0 mi SE 19.6 mph - N/A   Clear
3:55 AM 32.0 °F 20.8 °F -13.0 °F 14% 29.83 in 10.0 mi SSE 17.3 mph 21.9 mph N/A   Clear
4:15 AM 32.0 °F 19.2 °F -16.6 °F 12% 29.80 in 10.0 mi SSE 23.0 mph 36.8 mph N/A   Clear
4:35 AM 32.0 °F 19.2 °F -16.6 °F 12% 29.80 in 10.0 mi SSE 23.0 mph 29.9 mph N/A   Clear
4:55 AM 32.0 °F 19.8 °F -16.6 °F 12% 29.79 in 10.0 mi SSE 20.7 mph 28.8 mph N/A   Clear
5:15 AM 32.0 °F 20.1 °F -14.8 °F 13% 29.78 in 10.0 mi SE 19.6 mph 26.5 mph N/A   Clear
5:35 AM 32.0 °F 19.8 °F -16.6 °F 12% 29.78 in 10.0 mi SSE 20.7 mph 26.5 mph N/A   Clear
5:55 AM 32.0 °F 20.8 °F -18.4 °F 11% 29.77 in 10.0 mi SSE 17.3 mph 26.5 mph N/A   Clear
6:15 AM 32.0 °F 20.5 °F -22.0 °F 9% 29.76 in 10.0 mi SSE 18.4 mph 25.3 mph N/A   Clear
6:35 AM 32.0 °F 21.2 °F -20.2 °F 10% 29.76 in 10.0 mi SSE 16.1 mph 23.0 mph N/A   Clear
6:55 AM 32.0 °F 21.6 °F -20.2 °F 10% 29.76 in 10.0 mi SSE 15.0 mph 20.7 mph N/A   Clear
7:15 AM 32.0 °F 22.1 °F -18.4 °F 11% 29.76 in 10.0 mi South 13.8 mph - N/A   Clear
7:35 AM 32.0 °F 22.1 °F -20.2 °F 10% 29.76 in 10.0 mi South 13.8 mph 19.6 mph N/A   Clear
7:55 AM 32.0 °F 22.5 °F -18.4 °F 11% 29.75 in 10.0 mi South 12.7 mph - N/A   Clear
8:15 AM 32.0 °F 22.5 °F -22.0 °F 9% 29.74 in 10.0 mi SSE 12.7 mph - N/A   Clear
8:55 AM 32.0 °F 22.5 °F -18.4 °F 11% 29.73 in 10.0 mi SSE 12.7 mph 18.4 mph N/A   Clear
9:15 AM 32.0 °F 24.2 °F -18.4 °F 11% 29.72 in 10.0 mi SSE 9.2 mph - N/A   Clear
9:35 AM 32.0 °F 22.5 °F -18.4 °F 11% 29.72 in 10.0 mi South 12.7 mph 17.3 mph N/A   Scattered Clouds
9:55 AM 32.0 °F 23.6 °F -14.8 °F 13% 29.72 in 10.0 mi South 10.4 mph - N/A   Scattered Clouds
10:15 AM 32.0 °F 23.0 °F -16.6 °F 12% 29.70 in 10.0 mi South 11.5 mph 18.4 mph N/A   Scattered Clouds
10:35 AM 32.0 °F 22.5 °F -18.4 °F 11% 29.70 in 10.0 mi South 12.7 mph - N/A   Clear
10:55 AM 32.0 °F 23.0 °F -18.4 °F 11% 29.69 in 10.0 mi SSE 11.5 mph 17.3 mph N/A   Clear
11:15 AM 32.0 °F 20.5 °F -16.6 °F 12% 29.66 in 10.0 mi SSE 18.4 mph 24.2 mph N/A   Clear
11:35 AM 33.8 °F 22.8 °F -16.6 °F 11% 29.65 in 10.0 mi SSE 18.4 mph 21.9 mph N/A   Clear
11:55 AM 33.8 °F 22.5 °F -14.8 °F 12% 29.63 in 10.0 mi SE 19.6 mph 25.3 mph N/A   Scattered Clouds
12:35 PM 32.0 °F 20.5 °F -13.0 °F 14% 29.60 in 10.0 mi SSE 18.4 mph 27.6 mph N/A   Clear
12:55 PM 32.0 °F 22.1 °F -11.2 °F 15% 29.60 in 10.0 mi SSE 13.8 mph 24.2 mph N/A   Clear
1:15 PM 32.0 °F 21.6 °F -11.2 °F 15% 29.59 in 10.0 mi South 15.0 mph 24.2 mph N/A   Scattered Clouds
1:35 PM 32.0 °F 21.6 °F -9.4 °F 17% 29.58 in 10.0 mi South 15.0 mph 25.3 mph N/A   Scattered Clouds
1:55 PM 32.0 °F 22.1 °F -9.4 °F 17% 29.57 in 10.0 mi South 13.8 mph 31.1 mph N/A   Scattered Clouds
2:15 PM 32.0 °F 21.6 °F -7.6 °F 18% 29.56 in 10.0 mi SSE 15.0 mph 27.6 mph N/A   Mostly Cloudy
2:35 PM 32.0 °F 20.5 °F -5.8 °F 20% 29.56 in 10.0 mi SSE 18.4 mph 32.2 mph N/A   Overcast
2:55 PM 32.0 °F 19.5 °F -4.0 °F 21% 29.54 in 10.0 mi SSE 21.9 mph 32.2 mph N/A   Overcast
3:15 PM 32.0 °F 20.1 °F 1.4 °F 27% 29.55 in 10.0 mi SSE 19.6 mph 28.8 mph N/A   Overcast
3:35 PM 32.0 °F 21.2 °F 3.2 °F 30% 29.55 in 10.0 mi SSE 16.1 mph 29.9 mph N/A   Overcast
3:55 PM 32.0 °F 18.9 °F 8.6 °F 38% 29.52 in 10.0 mi SE 24.2 mph 34.5 mph N/A   Overcast
4:15 PM 30.2 °F 15.9 °F 12.2 °F 47% 29.52 in 10.0 mi SSE 26.5 mph 39.1 mph N/A   Overcast
4:35 PM 30.2 °F 15.4 °F 12.2 °F 47% 29.50 in 10.0 mi SSE 28.8 mph 40.3 mph N/A   Overcast
4:55 PM 30.2 °F 17.4 °F 12.2 °F 47% 29.51 in 10.0 mi SSE 20.7 mph 33.4 mph N/A   Overcast
5:15 PM 30.2 °F 16.2 °F 12.2 °F 47% 29.49 in 10.0 mi SSE 25.3 mph 33.4 mph N/A   Mostly Cloudy
5:35 PM 30.2 °F 14.9 °F 12.2 °F 47% 29.47 in 10.0 mi SSE 31.1 mph 40.3 mph N/A   Mostly Cloudy
5:55 PM 28.4 °F 12.3 °F 12.2 °F 51% 29.47 in 10.0 mi SE 32.2 mph 44.9 mph N/A   Overcast
6:15 PM 28.4 °F 13.0 °F 14.0 °F 55% 29.46 in 10.0 mi SE 28.8 mph 44.9 mph N/A   Mostly Cloudy
6:35 PM 28.4 °F 11.8 °F 14.0 °F 55% 29.44 in 10.0 mi SSE 34.5 mph 43.7 mph N/A   Scattered Clouds
6:55 PM 28.4 °F 13.0 °F 14.0 °F 55% 29.45 in 10.0 mi SE 28.8 mph 38.0 mph N/A   Clear
7:15 PM 28.4 °F 13.3 °F 14.0 °F 55% 29.44 in 10.0 mi SE 27.6 mph 35.7 mph N/A   Clear
7:55 PM 28.4 °F 12.5 °F 14.0 °F 55% 29.42 in 10.0 mi SSE 31.1 mph 39.1 mph N/A   Clear
8:15 PM 28.4 °F 12.0 °F 14.0 °F 55% 29.40 in 10.0 mi SSE 33.4 mph 47.2 mph N/A   Scattered Clouds
8:35 PM 28.4 °F 11.6 °F 14.0 °F 55% 29.39 in 10.0 mi SSE 35.7 mph 43.7 mph N/A   Clear
8:55 PM 26.6 °F 10.0 °F 15.8 °F 64% 29.39 in 10.0 mi SE 31.1 mph 46.0 mph N/A   Scattered Clouds
9:15 PM 26.6 °F 10.6 °F 15.8 °F 64% 29.39 in 10.0 mi SSE 28.8 mph 39.1 mph N/A   Mostly Cloudy
9:35 PM 26.6 °F 8.5 °F 17.6 °F 69% 29.35 in 10.0 mi SE 39.1 mph 52.9 mph N/A   Overcast
9:55 PM 26.6 °F 9.3 °F 15.8 °F 64% 29.35 in 10.0 mi SSE 34.5 mph 54.1 mph N/A   Mostly Cloudy
10:15 PM 26.6 °F 10.8 °F 15.8 °F 64% 29.34 in 10.0 mi SSE 27.6 mph 48.3 mph N/A   Scattered Clouds
10:35 PM 26.6 °F 8.3 °F 14.0 °F 59% 29.31 in 10.0 mi SE 40.3 mph 55.2 mph N/A   Clear
10:55 PM 28.4 °F 10.8 °F 12.2 °F 51% 29.29 in 10.0 mi SSE 40.3 mph 62.1 mph N/A   Clear
11:15 PM 26.6 °F 7.7 °F 10.4 °F 51% 29.26 in 7.0 mi SE 43.7 mph 64.4 mph N/A   Clear
11:35 PM 26.6 °F 7.7 °F 10.4 °F 51% 29.27 in 10.0 mi SSE 43.7 mph 64.4 mph N/A   Clear
11:55 PM 26.6 °F 7.9 °F 12.2 °F 55% 29.26 in 10.0 mi SSE 42.6 mph 62.1 mph N/A   Scattered Clouds